Location: Madrid
(40.4000°N, 3.6830°W)
Time: 13:14:51
(UTC+02:00)

ISS - Pass Details

Date: 08 April 2020
Orbit: 417 x 419 km, 51.6° (Epoch: 31 May)

Event Time Altitude Azimuth Distance (km) Brightness Sun altitude
Rises 21:49:04 0° 287° (WNW) 2,361 2.2 -12.2°
Reaches altitude 10° 21:52:18 10° 253° (WSW) 1,490 -0.2 -12.8°
Maximum altitude 21:53:31 12° 232° (SW) 1,393 -0.7 -13.0°
Drops below altitude 10° 21:54:45 10° 210° (SSW) 1,486 -0.9 -13.2°
Enters shadow 21:57:22 - 180° (S) 2,143 -0.4 -13.7°
